This is the latest recevied weather packets stored in our database for station/object KC7WRB. If no packets are shown the sender has not sent any weather packets the latest 10 day(s).
| Time | Temp. | Humidity | Pressure | Rain* | Wind** | Luminosity | Snow |
|---|---|---|---|---|---|---|---|
| 1778359932 | 25.56° C | 15% | 1019.5 hPa | 0 mm | - | 911 W/m² | - |
| 1778359629 | 25.56° C | 15% | 1019.8 hPa | 0 mm | - | 917 W/m² | - |
| 1778359325 | 25.56° C | 15% | 1019.8 hPa | 0 mm | - | 921 W/m² | - |
| 1778359021 | 25° C | 16% | 1020 hPa | 0 mm | - | 926 W/m² | - |
| 1778358720 | 25.56° C | 15% | 1019.8 hPa | 0 mm | - | 930 W/m² | - |
| 1778358415 | 25.56° C | 16% | 1019.8 hPa | 0 mm | - | 931 W/m² | - |
| 1778358110 | 25° C | 16% | 1020 hPa | 0 mm | - | 935 W/m² | - |
| 1778357806 | 25° C | 17% | 1020.2 hPa | 0 mm | - | 937 W/m² | - |
| 1778357503 | 24.44° C | 16% | 1020.1 hPa | 0 mm | - | 940 W/m² | - |
| 1778357199 | 25° C | 16% | 1020.2 hPa | 0 mm | - | 942 W/m² | - |
| 1778356894 | 25.56° C | 16% | 1020.3 hPa | 0 mm | - | 943 W/m² | - |
| 1778356590 | 25° C | 18% | 1020.5 hPa | 0 mm | - | 940 W/m² | - |
| 1778356285 | 25° C | 17% | 1020.6 hPa | 0 mm | - | 944 W/m² | - |
| 1778355985 | 24.44° C | 17% | 1020.3 hPa | 0 mm | - | 943 W/m² | - |
| 1778355682 | 24.44° C | 18% | 1020.7 hPa | 0 mm | - | 942 W/m² | - |
| 1778355378 | 25° C | 16% | 1020.7 hPa | 0 mm | - | 941 W/m² | - |
| 1778355074 | 24.44° C | 17% | 1020.6 hPa | 0 mm | - | 939 W/m² | - |
| 1778354771 | 23.89° C | 17% | 1020.5 hPa | 0 mm | - | 939 W/m² | - |
| 1778354466 | 23.89° C | 17% | 1020.7 hPa | 0 mm | - | 938 W/m² | - |
| 1778354161 | 23.89° C | 17% | 1020.9 hPa | 0 mm | - | 935 W/m² | - |
| 1778353857 | 23.89° C | 17% | 1021 hPa | 0 mm | - | 933 W/m² | - |
| 1778353554 | 23.33° C | 18% | 1021 hPa | 0 mm | - | 931 W/m² | - |
| 1778353252 | 23.89° C | 17% | 1021 hPa | 0 mm | - | 928 W/m² | - |
| 1778352949 | 23.33° C | 19% | 1021.2 hPa | 0 mm | - | 923 W/m² | - |
| 1778352645 | 23.33° C | 19% | 1021.2 hPa | 0 mm | - | 919 W/m² | - |
* Rain latest hour (hover to see other rain measurements)
** Current wind speed in m/s (hover to see current wind gust speed)